Location: Unspecified
(0.0000°N, 0.0000°E)
Time: 02:58:14
(UTC+00:00)

Envisat - Pass Details

Date: 26 April 2019
Orbit: 764 x 766 km, 98.2° (Epoch: 26 May)

Event Time Altitude Azimuth Distance (km) Brightness Sun altitude
Rises 20:06:37 0° 205° (SSW) 3,231 6.3 -31.2°
Reaches altitude 10° 20:10:22 10° 233° (SW) 2,302 5.8 -32.1°
Maximum altitude 20:12:25 12° 257° (WSW) 2,132 5.9 -32.6°
Drops below altitude 10° 20:14:28 10° 282° (WNW) 2,298 6.3 -33.1°
Sets 20:18:13 0° 310° (NW) 3,220 7.1 -34.0°
